contact:dominique.lefevre@mio.osupytheas.fr, maurice.libes@osupytheas.fr, didier.mallarino@osupytheas.fr
Project:EMSO http://www.emso-fr.org/EMSO-France
Depth: 2436.0 m
Title:EMSO Ligure Ouest : Data MII capteur MICROCAT
DateTime_Computer,Latitude,Longitude,Temperature,Conductivity,Pressure,DateTime_Instrument
DateTime_Computer,Latitude,Longitude,degC,S m-1,dbar,DateTime_Instrument
2019-09-13T00:01:50Z,42.805,6.029,13.2976,4.59986,2469.937,2019-9-13T02:02:13Z
2019-09-13T00:04:53Z,42.805,6.029,13.2973,4.59979,2469.937,2019-9-13T02:05:16Z
2019-09-13T00:07:56Z,42.805,6.029,13.2966,4.59986,2469.9,2019-9-13T02:08:19Z
2019-09-13T00:11:00Z,42.805,6.029,13.2971,4.59987,2469.923,2019-9-13T02:11:23Z
2019-09-13T00:14:03Z,42.805,6.029,13.2973,4.59991,2469.96,2019-9-13T02:14:26Z
2019-09-13T00:17:06Z,42.805,6.029,13.2966,4.59986,2469.937,2019-9-13T02:17:29Z
2019-09-13T00:20:09Z,42.805,6.029,13.2970,4.59997,2469.96,2019-9-13T02:20:32Z
2019-09-13T00:23:13Z,42.805,6.029,13.2971,4.59984,2469.96,2019-9-13T02:23:35Z
2019-09-13T00:26:16Z,42.805,6.029,13.2968,4.60002,2469.9,2019-9-13T02:26:39Z
2019-09-13T00:29:19Z,42.805,6.029,13.2978,4.59994,2469.914,2019-9-13T02:29:42Z
2019-09-13T00:32:22Z,42.805,6.029,13.2962,4.59986,2469.96,2019-9-13T02:32:45Z
2019-09-13T00:35:25Z,42.805,6.029,13.2967,4.59994,2469.9,2019-9-13T02:35:48Z
2019-09-13T00:38:28Z,42.805,6.029,13.2968,4.60031,2469.9,2019-9-13T02:38:51Z
2019-09-13T00:41:32Z,42.805,6.029,13.2967,4.60003,2469.9,2019-9-13T02:41:55Z
2019-09-13T00:44:35Z,42.805,6.029,13.3011,4.60022,2469.876,2019-9-13T02:44:58Z
2019-09-13T00:47:38Z,42.805,6.029,13.2985,4.60014,2469.923,2019-9-13T02:48:01Z
2019-09-13T00:50:41Z,42.805,6.029,13.2980,4.60022,2469.9,2019-9-13T02:51:04Z
2019-09-13T00:53:45Z,42.805,6.029,13.2977,4.60021,2469.9,2019-9-13T02:54:07Z
2019-09-13T00:56:48Z,42.805,6.029,13.3006,4.60031,2469.89,2019-9-13T02:57:11Z
2019-09-13T00:59:51Z,42.805,6.029,13.3003,4.60035,2469.867,2019-9-13T03:00:14Z
2019-09-13T01:02:54Z,42.805,6.029,13.2966,4.60003,2469.89,2019-9-13T03:03:17Z
2019-09-13T01:05:57Z,42.805,6.029,13.2969,4.59998,2469.876,2019-9-13T03:06:20Z
2019-09-13T01:09:00Z,42.805,6.029,13.2980,4.60006,2469.876,2019-9-13T03:09:23Z
2019-09-13T01:12:04Z,42.805,6.029,13.2970,4.60001,2469.914,2019-9-13T03:12:27Z
2019-09-13T01:15:07Z,42.805,6.029,13.2996,4.60016,2469.89,2019-9-13T03:15:30Z
2019-09-13T01:18:10Z,42.805,6.029,13.2969,4.60011,2469.89,2019-9-13T03:18:33Z
2019-09-13T01:21:13Z,42.805,6.029,13.2986,4.60016,2469.89,2019-9-13T03:21:36Z
2019-09-13T01:24:16Z,42.805,6.029,13.2964,4.60037,2469.876,2019-9-13T03:24:39Z
2019-09-13T01:27:20Z,42.805,6.029,13.2970,4.59985,2469.853,2019-9-13T03:27:43Z
2019-09-13T01:30:23Z,42.805,6.029,13.2968,4.60006,2469.876,2019-9-13T03:30:46Z
2019-09-13T01:33:26Z,42.805,6.029,13.2964,4.60002,2469.867,2019-9-13T03:33:49Z
2019-09-13T01:36:29Z,42.805,6.029,13.2967,4.60006,2469.937,2019-9-13T03:36:52Z
2019-09-13T01:39:33Z,42.805,6.029,13.2969,4.60036,2469.9,2019-9-13T03:39:55Z
2019-09-13T01:42:36Z,42.805,6.029,13.2973,4.60002,2469.937,2019-9-13T03:42:59Z
2019-09-13T01:45:39Z,42.805,6.029,13.2970,4.60058,2469.89,2019-9-13T03:46:02Z
2019-09-13T01:48:42Z,42.805,6.029,13.2982,4.60041,2469.89,2019-9-13T03:49:05Z
2019-09-13T01:51:45Z,42.805,6.029,13.2964,4.60009,2469.867,2019-9-13T03:52:08Z
2019-09-13T01:54:49Z,42.805,6.029,13.2975,4.60009,2469.9,2019-9-13T03:55:11Z
2019-09-13T01:57:52Z,42.805,6.029,13.2982,4.60020,2469.867,2019-9-13T03:58:15Z
2019-09-13T02:00:55Z,42.805,6.029,13.2974,4.60039,2469.9,2019-9-13T04:01:18Z
2019-09-13T02:03:58Z,42.805,6.029,13.2968,4.59999,2469.89,2019-9-13T04:04:21Z
2019-09-13T02:07:01Z,42.805,6.029,13.2971,4.60017,2469.876,2019-9-13T04:07:24Z
2019-09-13T02:10:05Z,42.805,6.029,13.2972,4.59995,2469.914,2019-9-13T04:10:27Z
2019-09-13T02:13:08Z,42.805,6.029,13.2979,4.60016,2469.876,2019-9-13T04:13:31Z
2019-09-13T02:16:11Z,42.805,6.029,13.2974,4.60032,2469.876,2019-9-13T04:16:34Z
2019-09-13T02:19:14Z,42.805,6.029,13.2971,4.60057,2469.89,2019-9-13T04:19:37Z
2019-09-13T02:22:17Z,42.805,6.029,13.2972,4.59999,2469.876,2019-9-13T04:22:40Z
2019-09-13T02:25:21Z,42.805,6.029,13.2983,4.60029,2469.876,2019-9-13T04:25:43Z
2019-09-13T02:28:24Z,42.805,6.029,13.2976,4.60009,2469.89,2019-9-13T04:28:47Z
2019-09-13T02:31:27Z,42.805,6.029,13.2971,4.59993,2469.876,2019-9-13T04:31:50Z
2019-09-13T02:34:30Z,42.805,6.029,13.2965,4.59986,2469.89,2019-9-13T04:34:53Z
2019-09-13T02:37:33Z,42.805,6.029,13.2964,4.60011,2469.9,2019-9-13T04:37:56Z
2019-09-13T02:40:37Z,42.805,6.029,13.2974,4.60017,2469.9,2019-9-13T04:40:59Z
2019-09-13T02:43:40Z,42.805,6.029,13.2968,4.60017,2469.9,2019-9-13T04:44:03Z
2019-09-13T02:46:43Z,42.805,6.029,13.2969,4.60010,2469.914,2019-9-13T04:47:06Z
2019-09-13T02:49:46Z,42.805,6.029,13.2964,4.60003,2469.9,2019-9-13T04:50:09Z
2019-09-13T02:52:49Z,42.805,6.029,13.2968,4.60010,2469.867,2019-9-13T04:53:12Z
2019-09-13T02:55:53Z,42.805,6.029,13.2974,4.60007,2469.914,2019-9-13T04:56:16Z
2019-09-13T02:58:56Z,42.805,6.029,13.2983,4.60038,2469.9,2019-9-13T04:59:19Z
2019-09-13T03:01:59Z,42.805,6.029,13.3001,4.60002,2469.9,2019-9-13T05:02:22Z
2019-09-13T03:05:02Z,42.805,6.029,13.2979,4.60011,2469.914,2019-9-13T05:05:25Z
2019-09-13T03:08:05Z,42.805,6.029,13.2974,4.60028,2469.914,2019-9-13T05:08:28Z
2019-09-13T03:11:09Z,42.805,6.029,13.2976,4.60055,2469.876,2019-9-13T05:11:32Z
2019-09-13T03:14:12Z,42.805,6.029,13.2968,4.60003,2469.9,2019-9-13T05:14:35Z
2019-09-13T03:17:15Z,42.805,6.029,13.2974,4.60022,2469.923,2019-9-13T05:17:38Z
2019-09-13T03:20:18Z,42.805,6.029,13.2969,4.59993,2469.923,2019-9-13T05:20:41Z
2019-09-13T03:23:21Z,42.805,6.029,13.2978,4.59996,2469.914,2019-9-13T05:23:44Z
2019-09-13T03:26:25Z,42.805,6.029,13.2979,4.60056,2469.923,2019-9-13T05:26:48Z
2019-09-13T03:29:28Z,42.805,6.029,13.2984,4.60031,2469.914,2019-9-13T05:29:51Z
2019-09-13T03:32:31Z,42.805,6.029,13.2982,4.60029,2469.9,2019-9-13T05:32:54Z
2019-09-13T03:35:34Z,42.805,6.029,13.2992,4.60019,2469.937,2019-9-13T05:35:57Z
2019-09-13T03:38:37Z,42.805,6.029,13.2993,4.59999,2469.937,2019-9-13T05:39:00Z
2019-09-13T03:41:41Z,42.805,6.029,13.3001,4.60010,2469.9,2019-9-13T05:42:04Z
2019-09-13T03:44:44Z,42.805,6.029,13.2979,4.60003,2469.914,2019-9-13T05:45:07Z
2019-09-13T03:47:47Z,42.805,6.029,13.2982,4.60002,2469.937,2019-9-13T05:48:10Z
2019-09-13T03:50:50Z,42.805,6.029,13.2987,4.60010,2469.923,2019-9-13T05:51:13Z
2019-09-13T03:53:53Z,42.805,6.029,13.2988,4.60031,2469.923,2019-9-13T05:54:16Z
2019-09-13T03:56:57Z,42.805,6.029,13.3001,4.60054,2469.923,2019-9-13T05:57:20Z
2019-09-13T04:00:00Z,42.805,6.029,13.2996,4.60019,2469.914,2019-9-13T06:00:23Z
2019-09-13T04:03:03Z,42.805,6.029,13.3007,4.60035,2469.937,2019-9-13T06:03:26Z
2019-09-13T04:06:06Z,42.805,6.029,13.2993,4.60045,2469.984,2019-9-13T06:06:29Z
2019-09-13T04:09:09Z,42.805,6.029,13.3013,4.59978,2469.937,2019-9-13T06:09:32Z
2019-09-13T04:12:13Z,42.805,6.029,13.2995,4.60021,2469.947,2019-9-13T06:12:35Z
2019-09-13T04:15:16Z,42.805,6.029,13.3004,4.60016,2469.923,2019-9-13T06:15:39Z
2019-09-13T04:18:19Z,42.805,6.029,13.3017,4.59971,2469.97,2019-9-13T06:18:42Z
2019-09-13T04:21:22Z,42.805,6.029,13.3019,4.59986,2469.96,2019-9-13T06:21:45Z
2019-09-13T04:24:25Z,42.805,6.029,13.3036,4.60002,2469.947,2019-9-13T06:24:48Z
2019-09-13T04:27:29Z,42.805,6.029,13.3038,4.59988,2469.97,2019-9-13T06:27:52Z
2019-09-13T04:30:32Z,42.805,6.029,13.2970,4.60016,2469.993,2019-9-13T06:30:55Z
2019-09-13T04:33:35Z,42.805,6.029,13.2974,4.60014,2469.984,2019-9-13T06:33:58Z
2019-09-13T04:36:38Z,42.805,6.029,13.2983,4.60008,2469.947,2019-9-13T06:37:01Z
2019-09-13T04:39:41Z,42.805,6.029,13.2981,4.60083,2469.96,2019-9-13T06:40:04Z
2019-09-13T04:42:45Z,42.805,6.029,13.2990,4.60019,2469.947,2019-9-13T06:43:07Z
2019-09-13T04:45:48Z,42.805,6.029,13.2993,4.60011,2469.947,2019-9-13T06:46:11Z
2019-09-13T04:48:51Z,42.805,6.029,13.2990,4.60026,2469.984,2019-9-13T06:49:14Z
2019-09-13T04:51:54Z,42.805,6.029,13.2973,4.59993,2469.97,2019-9-13T06:52:17Z
2019-09-13T04:54:57Z,42.805,6.029,13.2977,4.60007,2469.993,2019-9-13T06:55:20Z
2019-09-13T04:58:01Z,42.805,6.029,13.2988,4.60021,2469.993,2019-9-13T06:58:23Z
2019-09-13T05:01:04Z,42.805,6.029,13.2983,4.60043,2469.984,2019-9-13T07:01:27Z
2019-09-13T05:04:07Z,42.805,6.029,13.2989,4.60019,2469.97,2019-9-13T07:04:30Z
2019-09-13T05:07:11Z,42.805,6.029,13.2976,4.60068,2470.007,2019-9-13T07:07:33Z
2019-09-13T05:10:14Z,42.805,6.029,13.2981,4.60046,2469.96,2019-9-13T07:10:37Z
2019-09-13T05:13:17Z,42.805,6.029,13.2996,4.59999,2469.984,2019-9-13T07:13:40Z
2019-09-13T05:16:20Z,42.805,6.029,13.2976,4.60013,2470.007,2019-9-13T07:16:43Z
2019-09-13T05:19:23Z,42.805,6.029,13.3006,4.59987,2470.017,2019-9-13T07:19:46Z
2019-09-13T05:22:27Z,42.805,6.029,13.2991,4.59989,2470.007,2019-9-13T07:22:49Z
2019-09-13T05:25:30Z,42.805,6.029,13.2995,4.60085,2470.007,2019-9-13T07:25:53Z
2019-09-13T05:28:33Z,42.805,6.029,13.3009,4.60054,2470.007,2019-9-13T07:28:56Z
2019-09-13T05:31:36Z,42.805,6.029,13.3018,4.60025,2469.96,2019-9-13T07:31:59Z
2019-09-13T05:34:39Z,42.805,6.029,13.3026,4.60006,2470.007,2019-9-13T07:35:02Z
2019-09-13T05:37:43Z,42.805,6.029,13.3034,4.59983,2469.984,2019-9-13T07:38:06Z
2019-09-13T05:40:46Z,42.805,6.029,13.2989,4.59994,2470.007,2019-9-13T07:41:09Z
2019-09-13T05:43:49Z,42.805,6.029,13.3033,4.59971,2469.984,2019-9-13T07:44:12Z
2019-09-13T05:46:52Z,42.805,6.029,13.3060,4.59978,2470.007,2019-9-13T07:47:15Z
2019-09-13T05:49:56Z,42.805,6.029,13.2965,4.59988,2470.007,2019-9-13T07:50:19Z
2019-09-13T05:52:59Z,42.805,6.029,13.2976,4.59998,2470.03,2019-9-13T07:53:22Z
2019-09-13T05:56:02Z,42.805,6.029,13.2988,4.60006,2470.007,2019-9-13T07:56:25Z
2019-09-13T05:59:05Z,42.805,6.029,13.3004,4.60006,2469.993,2019-9-13T07:59:28Z
2019-09-13T06:02:08Z,42.805,6.029,13.3008,4.60007,2469.993,2019-9-13T08:02:31Z
2019-09-13T06:05:12Z,42.805,6.029,13.3006,4.60019,2470.007,2019-9-13T08:05:35Z
2019-09-13T06:08:15Z,42.805,6.029,13.2982,4.59986,2470.007,2019-9-13T08:08:38Z
2019-09-13T06:11:18Z,42.805,6.029,13.2986,4.59982,2470.007,2019-9-13T08:11:41Z
2019-09-13T06:14:21Z,42.805,6.029,13.2956,4.59962,2470.03,2019-9-13T08:14:44Z
2019-09-13T06:17:24Z,42.805,6.029,13.2956,4.59961,2470.017,2019-9-13T08:17:47Z
2019-09-13T06:20:28Z,42.805,6.029,13.2953,4.59961,2469.993,2019-9-13T08:20:51Z
2019-09-13T06:23:31Z,42.805,6.029,13.2955,4.59958,2470.007,2019-9-13T08:23:54Z
2019-09-13T06:26:34Z,42.805,6.029,13.2953,4.59961,2469.993,2019-9-13T08:26:57Z
2019-09-13T06:29:37Z,42.805,6.029,13.2953,4.59969,2469.97,2019-9-13T08:30:00Z
2019-09-13T06:32:40Z,42.805,6.029,13.2957,4.59965,2469.97,2019-9-13T08:33:03Z
2019-09-13T06:35:44Z,42.805,6.029,13.2956,4.59962,2469.97,2019-9-13T08:36:07Z
2019-09-13T06:38:47Z,42.805,6.029,13.2954,4.59961,2469.984,2019-9-13T08:39:10Z
2019-09-13T06:41:50Z,42.805,6.029,13.2955,4.59966,2469.984,2019-9-13T08:42:13Z
2019-09-13T06:44:53Z,42.805,6.029,13.2952,4.59958,2469.984,2019-9-13T08:45:16Z
2019-09-13T06:47:56Z,42.805,6.029,13.2954,4.59964,2469.993,2019-9-13T08:48:19Z
2019-09-13T06:51:00Z,42.805,6.029,13.2955,4.59957,2470.007,2019-9-13T08:51:23Z
2019-09-13T06:54:03Z,42.805,6.029,13.2955,4.59957,2469.97,2019-9-13T08:54:26Z
2019-09-13T06:57:06Z,42.805,6.029,13.2954,4.59956,2469.97,2019-9-13T08:57:29Z
2019-09-13T07:00:09Z,42.805,6.029,13.2953,4.59958,2470.03,2019-9-13T09:00:32Z
2019-09-13T07:03:12Z,42.805,6.029,13.2953,4.59957,2470.007,2019-9-13T09:03:35Z
2019-09-13T07:06:16Z,42.805,6.029,13.2956,4.59956,2469.993,2019-9-13T09:06:39Z
2019-09-13T07:09:19Z,42.805,6.029,13.2954,4.59960,2470.007,2019-9-13T09:09:42Z
2019-09-13T07:12:22Z,42.805,6.029,13.2958,4.59959,2469.979,2019-9-13T09:12:45Z
2019-09-13T07:15:26Z,42.805,6.029,13.2955,4.59957,2469.993,2019-9-13T09:15:48Z
2019-09-13T07:18:29Z,42.805,6.029,13.2955,4.59959,2470.017,2019-9-13T09:18:52Z
2019-09-13T07:21:32Z,42.805,6.029,13.2954,4.59955,2470.007,2019-9-13T09:21:55Z
2019-09-13T07:24:35Z,42.805,6.029,13.2952,4.59958,2470.017,2019-9-13T09:24:58Z
2019-09-13T07:27:38Z,42.805,6.029,13.2952,4.59958,2470.007,2019-9-13T09:28:01Z
2019-09-13T07:30:42Z,42.805,6.029,13.2953,4.59955,2469.993,2019-9-13T09:31:05Z
2019-09-13T07:33:45Z,42.805,6.029,13.2958,4.59957,2470.03,2019-9-13T09:34:08Z
2019-09-13T07:36:49Z,42.805,6.029,13.2957,4.59958,2470.03,2019-9-13T09:37:12Z
2019-09-13T07:39:52Z,42.805,6.029,13.2955,4.59957,2469.993,2019-9-13T09:40:15Z
2019-09-13T07:42:55Z,42.805,6.029,13.2955,4.59957,2470.03,2019-9-13T09:43:18Z
2019-09-13T07:45:58Z,42.805,6.029,13.2954,4.59956,2469.97,2019-9-13T09:46:21Z
2019-09-13T07:49:02Z,42.805,6.029,13.2955,4.59957,2469.97,2019-9-13T09:49:25Z
2019-09-13T07:52:05Z,42.805,6.029,13.2950,4.59955,2469.993,2019-9-13T09:52:28Z
2019-09-13T07:55:08Z,42.805,6.029,13.2955,4.59955,2469.993,2019-9-13T09:55:31Z
2019-09-13T07:58:11Z,42.805,6.029,13.2953,4.59956,2469.993,2019-9-13T09:58:34Z
2019-09-13T08:01:15Z,42.805,6.029,13.2956,4.59954,2469.993,2019-9-13T10:01:37Z
2019-09-13T08:04:18Z,42.805,6.029,13.2957,4.59954,2469.993,2019-9-13T10:04:41Z
2019-09-13T08:07:21Z,42.805,6.029,13.2954,4.59954,2469.97,2019-9-13T10:07:44Z
2019-09-13T08:10:24Z,42.805,6.029,13.2953,4.59956,2469.984,2019-9-13T10:10:47Z
2019-09-13T08:13:27Z,42.805,6.029,13.2961,4.59956,2469.993,2019-9-13T10:13:50Z
2019-09-13T08:16:30Z,42.805,6.029,13.2956,4.59955,2470.03,2019-9-13T10:16:53Z
2019-09-13T08:19:34Z,42.805,6.029,13.2953,4.59954,2469.97,2019-9-13T10:19:57Z
2019-09-13T08:22:37Z,42.805,6.029,13.2952,4.59956,2469.97,2019-9-13T10:23:00Z
2019-09-13T08:25:40Z,42.805,6.029,13.2953,4.59955,2470.007,2019-9-13T10:26:03Z
2019-09-13T08:28:43Z,42.805,6.029,13.2957,4.59957,2469.993,2019-9-13T10:29:06Z
2019-09-13T08:31:46Z,42.805,6.029,13.2960,4.59956,2469.984,2019-9-13T10:32:09Z
2019-09-13T08:34:50Z,42.805,6.029,13.2956,4.59955,2469.97,2019-9-13T10:35:13Z
2019-09-13T08:37:53Z,42.805,6.029,13.2958,4.59955,2469.984,2019-9-13T10:38:16Z
2019-09-13T08:40:56Z,42.805,6.029,13.2950,4.59955,2470.007,2019-9-13T10:41:19Z
2019-09-13T08:43:59Z,42.805,6.029,13.2953,4.59955,2469.96,2019-9-13T10:44:22Z
2019-09-13T08:47:02Z,42.805,6.029,13.2955,4.59953,2469.984,2019-9-13T10:47:25Z
2019-09-13T08:50:06Z,42.805,6.029,13.2955,4.59953,2469.984,2019-9-13T10:50:29Z
2019-09-13T08:53:09Z,42.805,6.029,13.2955,4.59955,2469.984,2019-9-13T10:53:32Z
2019-09-13T08:56:12Z,42.805,6.029,13.2952,4.59956,2469.984,2019-9-13T10:56:35Z
2019-09-13T08:59:15Z,42.805,6.029,13.2956,4.59955,2469.947,2019-9-13T10:59:38Z
2019-09-13T09:02:18Z,42.805,6.029,13.2953,4.59956,2469.947,2019-9-13T11:02:41Z
2019-09-13T09:05:22Z,42.805,6.029,13.2954,4.59953,2469.97,2019-9-13T11:05:44Z
2019-09-13T09:08:25Z,42.805,6.029,13.2955,4.59952,2469.984,2019-9-13T11:08:48Z
2019-09-13T09:11:28Z,42.805,6.029,13.2951,4.59952,2469.984,2019-9-13T11:11:51Z
2019-09-13T09:14:31Z,42.805,6.029,13.2953,4.59954,2469.947,2019-9-13T11:14:54Z
2019-09-13T09:17:34Z,42.805,6.029,13.2958,4.59954,2469.993,2019-9-13T11:17:57Z
2019-09-13T09:20:38Z,42.805,6.029,13.2955,4.59953,2469.947,2019-9-13T11:21:00Z
2019-09-13T09:23:41Z,42.805,6.029,13.2953,4.59953,2469.96,2019-9-13T11:24:04Z
2019-09-13T09:26:44Z,42.805,6.029,13.2952,4.59952,2469.947,2019-9-13T11:27:07Z
2019-09-13T09:29:47Z,42.805,6.029,13.2953,4.59953,2469.96,2019-9-13T11:30:10Z
2019-09-13T09:32:50Z,42.805,6.029,13.2957,4.59954,2469.923,2019-9-13T11:33:13Z
2019-09-13T09:35:54Z,42.805,6.029,13.2957,4.59956,2469.937,2019-9-13T11:36:16Z
2019-09-13T09:38:57Z,42.805,6.029,13.2957,4.59954,2469.937,2019-9-13T11:39:20Z
2019-09-13T09:42:00Z,42.805,6.029,13.2953,4.59960,2469.923,2019-9-13T11:42:23Z
2019-09-13T09:45:03Z,42.805,6.029,13.2954,4.59956,2469.984,2019-9-13T11:45:26Z
2019-09-13T09:48:06Z,42.805,6.029,13.2958,4.59954,2469.984,2019-9-13T11:48:29Z
2019-09-13T09:51:10Z,42.805,6.029,13.2952,4.59956,2469.9,2019-9-13T11:51:33Z
2019-09-13T09:54:13Z,42.805,6.029,13.2956,4.59952,2469.923,2019-9-13T11:54:36Z
2019-09-13T09:57:16Z,42.805,6.029,13.2953,4.59954,2469.937,2019-9-13T11:57:39Z
2019-09-13T10:00:19Z,42.805,6.029,13.2956,4.59953,2469.923,2019-9-13T12:00:42Z
2019-09-13T10:03:22Z,42.805,6.029,13.2953,4.59953,2469.914,2019-9-13T12:03:45Z
2019-09-13T10:06:26Z,42.805,6.029,13.2955,4.59953,2469.923,2019-9-13T12:06:49Z
2019-09-13T10:09:29Z,42.805,6.029,13.2952,4.59958,2469.937,2019-9-13T12:09:52Z
2019-09-13T10:12:32Z,42.805,6.029,13.2953,4.59953,2469.9,2019-9-13T12:12:55Z
2019-09-13T10:15:35Z,42.805,6.029,13.2957,4.59953,2469.9,2019-9-13T12:15:58Z
2019-09-13T10:18:38Z,42.805,6.029,13.2954,4.59952,2469.9,2019-9-13T12:19:01Z
2019-09-13T10:21:42Z,42.805,6.029,13.2953,4.59951,2469.947,2019-9-13T12:22:04Z
2019-09-13T10:24:45Z,42.805,6.029,13.2957,4.59953,2469.9,2019-9-13T12:25:08Z
2019-09-13T10:27:48Z,42.805,6.029,13.2953,4.59954,2469.9,2019-9-13T12:28:11Z
2019-09-13T10:30:51Z,42.805,6.029,13.2954,4.59956,2469.96,2019-9-13T12:31:14Z
2019-09-13T10:33:55Z,42.805,6.029,13.2952,4.59954,2469.914,2019-9-13T12:34:17Z
2019-09-13T10:36:58Z,42.805,6.029,13.2953,4.59954,2469.9,2019-9-13T12:37:21Z
2019-09-13T10:40:01Z,42.805,6.029,13.2958,4.59954,2469.876,2019-9-13T12:40:24Z
2019-09-13T10:43:04Z,42.805,6.029,13.2957,4.59954,2469.914,2019-9-13T12:43:27Z
2019-09-13T10:46:07Z,42.805,6.029,13.2952,4.59955,2469.9,2019-9-13T12:46:30Z
2019-09-13T10:49:11Z,42.805,6.029,13.2954,4.59955,2469.923,2019-9-13T12:49:34Z
2019-09-13T10:52:14Z,42.805,6.029,13.2955,4.59953,2469.9,2019-9-13T12:52:37Z
2019-09-13T10:55:17Z,42.805,6.029,13.2957,4.59954,2469.89,2019-9-13T12:55:40Z
2019-09-13T10:58:20Z,42.805,6.029,13.2951,4.59954,2469.89,2019-9-13T12:58:43Z
2019-09-13T11:01:24Z,42.805,6.029,13.2959,4.59953,2469.9,2019-9-13T13:01:46Z
2019-09-13T11:04:27Z,42.805,6.029,13.2958,4.59953,2469.876,2019-9-13T13:04:50Z
2019-09-13T11:07:30Z,42.805,6.029,13.2953,4.59953,2469.863,2019-9-13T13:07:53Z
2019-09-13T11:10:33Z,42.805,6.029,13.2956,4.59952,2469.876,2019-9-13T13:10:56Z
2019-09-13T11:13:36Z,42.805,6.029,13.2954,4.59953,2469.867,2019-9-13T13:13:59Z
2019-09-13T11:16:40Z,42.805,6.029,13.2953,4.59954,2469.89,2019-9-13T13:17:03Z
2019-09-13T11:19:43Z,42.805,6.029,13.2955,4.59953,2469.89,2019-9-13T13:20:06Z
2019-09-13T11:22:46Z,42.805,6.029,13.2953,4.59954,2469.9,2019-9-13T13:23:09Z
2019-09-13T11:25:49Z,42.805,6.029,13.2956,4.59953,2469.876,2019-9-13T13:26:12Z
2019-09-13T11:28:52Z,42.805,6.029,13.2955,4.59954,2469.89,2019-9-13T13:29:15Z
2019-09-13T11:31:56Z,42.805,6.029,13.2954,4.59957,2469.816,2019-9-13T13:32:18Z
2019-09-13T11:34:59Z,42.805,6.029,13.2953,4.59954,2469.853,2019-9-13T13:35:22Z
2019-09-13T11:38:02Z,42.805,6.029,13.2955,4.59954,2469.89,2019-9-13T13:38:25Z
2019-09-13T11:41:05Z,42.805,6.029,13.2953,4.59954,2469.876,2019-9-13T13:41:28Z
2019-09-13T11:44:08Z,42.805,6.029,13.2955,4.59953,2469.876,2019-9-13T13:44:31Z
2019-09-13T11:47:12Z,42.805,6.029,13.2957,4.59951,2469.853,2019-9-13T13:47:34Z
2019-09-13T11:50:15Z,42.805,6.029,13.2953,4.59953,2469.867,2019-9-13T13:50:38Z
2019-09-13T11:53:18Z,42.805,6.029,13.2952,4.59952,2469.853,2019-9-13T13:53:41Z
2019-09-13T11:56:21Z,42.805,6.029,13.2958,4.59955,2469.867,2019-9-13T13:56:44Z
2019-09-13T11:59:24Z,42.805,6.029,13.2956,4.59956,2469.83,2019-9-13T13:59:47Z
2019-09-13T12:02:28Z,42.805,6.029,13.2956,4.59955,2469.853,2019-9-13T14:02:51Z
2019-09-13T12:05:31Z,42.805,6.029,13.2955,4.59954,2469.89,2019-9-13T14:05:54Z
2019-09-13T12:08:34Z,42.805,6.029,13.2953,4.59954,2469.876,2019-9-13T14:08:57Z
2019-09-13T12:11:37Z,42.805,6.029,13.2954,4.59952,2469.876,2019-9-13T14:12:00Z
2019-09-13T12:14:40Z,42.805,6.029,13.2955,4.59954,2469.867,2019-9-13T14:15:03Z
2019-09-13T12:17:44Z,42.805,6.029,13.2954,4.59956,2469.844,2019-9-13T14:18:07Z
2019-09-13T12:20:47Z,42.805,6.029,13.2958,4.59953,2469.867,2019-9-13T14:21:10Z
2019-09-13T12:23:50Z,42.805,6.029,13.2954,4.59951,2469.853,2019-9-13T14:24:13Z
2019-09-13T12:26:53Z,42.805,6.029,13.2957,4.59956,2469.821,2019-9-13T14:27:16Z
2019-09-13T12:29:56Z,42.805,6.029,13.2953,4.59951,2469.853,2019-9-13T14:30:19Z
2019-09-13T12:33:00Z,42.805,6.029,13.2953,4.59956,2469.853,2019-9-13T14:33:23Z
2019-09-13T12:36:03Z,42.805,6.029,13.2956,4.59952,2469.89,2019-9-13T14:36:26Z
2019-09-13T12:39:06Z,42.805,6.029,13.2957,4.59959,2469.839,2019-9-13T14:39:29Z
2019-09-13T12:42:09Z,42.805,6.029,13.2950,4.59952,2469.844,2019-9-13T14:42:32Z
2019-09-13T12:45:12Z,42.805,6.029,13.2959,4.59963,2469.83,2019-9-13T14:45:35Z
2019-09-13T12:48:16Z,42.805,6.029,13.2957,4.59954,2469.853,2019-9-13T14:48:39Z
2019-09-13T12:51:19Z,42.805,6.029,13.2960,4.59956,2469.83,2019-9-13T14:51:42Z
2019-09-13T12:54:22Z,42.805,6.029,13.2967,4.59968,2469.853,2019-9-13T14:54:45Z
2019-09-13T12:57:25Z,42.805,6.029,13.2961,4.59956,2469.83,2019-9-13T14:57:48Z
2019-09-13T13:00:28Z,42.805,6.029,13.2957,4.59954,2469.83,2019-9-13T15:00:51Z
2019-09-13T13:03:32Z,42.805,6.029,13.2962,4.59956,2469.83,2019-9-13T15:03:55Z
2019-09-13T13:06:35Z,42.805,6.029,13.2958,4.59966,2469.867,2019-9-13T15:06:58Z
2019-09-13T13:09:38Z,42.805,6.029,13.2970,4.59958,2469.83,2019-9-13T15:10:01Z
2019-09-13T13:12:41Z,42.805,6.029,13.2957,4.59955,2469.853,2019-9-13T15:13:04Z
2019-09-13T13:15:44Z,42.805,6.029,13.2952,4.59958,2469.821,2019-9-13T15:16:07Z
2019-09-13T13:18:48Z,42.805,6.029,13.2958,4.59954,2469.83,2019-9-13T15:19:10Z
2019-09-13T13:21:51Z,42.805,6.029,13.2952,4.59955,2469.83,2019-9-13T15:22:14Z
2019-09-13T13:24:54Z,42.805,6.029,13.2954,4.59956,2469.853,2019-9-13T15:25:17Z
2019-09-13T13:27:57Z,42.805,6.029,13.2951,4.59956,2469.83,2019-9-13T15:28:20Z
2019-09-13T13:31:00Z,42.805,6.029,13.2957,4.59956,2469.83,2019-9-13T15:31:23Z
2019-09-13T13:34:04Z,42.805,6.029,13.2957,4.59956,2469.83,2019-9-13T15:34:26Z
2019-09-13T13:37:07Z,42.805,6.029,13.2969,4.59958,2469.853,2019-9-13T15:37:30Z
2019-09-13T13:40:10Z,42.805,6.029,13.2964,4.59968,2469.844,2019-9-13T15:40:33Z
2019-09-13T13:43:13Z,42.805,6.029,13.2961,4.59958,2469.876,2019-9-13T15:43:36Z
2019-09-13T13:46:16Z,42.805,6.029,13.2978,4.59968,2469.83,2019-9-13T15:46:39Z
2019-09-13T13:49:20Z,42.805,6.029,13.2958,4.59968,2469.853,2019-9-13T15:49:43Z
2019-09-13T13:52:23Z,42.805,6.029,13.2967,4.59961,2469.844,2019-9-13T15:52:46Z
2019-09-13T13:55:26Z,42.805,6.029,13.2955,4.59961,2469.83,2019-9-13T15:55:49Z
2019-09-13T13:58:29Z,42.805,6.029,13.2968,4.59958,2469.821,2019-9-13T15:58:52Z
2019-09-13T14:01:32Z,42.805,6.029,13.2971,4.59964,2469.821,2019-9-13T16:01:55Z
2019-09-13T14:04:36Z,42.805,6.029,13.2965,4.59958,2469.83,2019-9-13T16:04:59Z
2019-09-13T14:07:39Z,42.805,6.029,13.2984,4.59980,2469.816,2019-9-13T16:08:02Z
2019-09-13T14:10:42Z,42.805,6.029,13.2970,4.59961,2469.853,2019-9-13T16:11:05Z
2019-09-13T14:13:45Z,42.805,6.029,13.2953,4.59956,2469.867,2019-9-13T16:14:08Z
2019-09-13T14:16:48Z,42.805,6.029,13.2954,4.59954,2469.83,2019-9-13T16:17:11Z
2019-09-13T14:19:52Z,42.805,6.029,13.2953,4.59956,2469.867,2019-9-13T16:20:15Z
2019-09-13T14:22:55Z,42.805,6.029,13.2957,4.59954,2469.844,2019-9-13T16:23:18Z
2019-09-13T14:25:58Z,42.805,6.029,13.2957,4.59964,2469.853,2019-9-13T16:26:21Z
2019-09-13T14:29:01Z,42.805,6.029,13.2964,4.59958,2469.821,2019-9-13T16:29:24Z
2019-09-13T14:32:05Z,42.805,6.029,13.2958,4.59958,2469.821,2019-9-13T16:32:27Z
2019-09-13T14:35:08Z,42.805,6.029,13.2953,4.59954,2469.89,2019-9-13T16:35:31Z
2019-09-13T14:38:11Z,42.805,6.029,13.2956,4.59958,2469.853,2019-9-13T16:38:34Z
2019-09-13T14:41:14Z,42.805,6.029,13.2957,4.59961,2469.83,2019-9-13T16:41:37Z
2019-09-13T14:44:17Z,42.805,6.029,13.2957,4.59961,2469.844,2019-9-13T16:44:40Z
2019-09-13T14:47:21Z,42.805,6.029,13.2956,4.59956,2469.89,2019-9-13T16:47:43Z
2019-09-13T14:50:24Z,42.805,6.029,13.2956,4.59955,2469.881,2019-9-13T16:50:47Z
2019-09-13T14:53:27Z,42.805,6.029,13.2958,4.59956,2469.867,2019-9-13T16:53:50Z
2019-09-13T14:56:30Z,42.805,6.029,13.2951,4.59958,2469.853,2019-9-13T16:56:53Z
2019-09-13T14:59:33Z,42.805,6.029,13.2953,4.59955,2469.83,2019-9-13T16:59:56Z
2019-09-13T15:02:37Z,42.805,6.029,13.2957,4.59966,2469.9,2019-9-13T17:02:59Z
2019-09-13T15:05:40Z,42.805,6.029,13.2958,4.59956,2469.867,2019-9-13T17:06:03Z
2019-09-13T15:08:43Z,42.805,6.029,13.2961,4.59954,2469.876,2019-9-13T17:09:06Z
2019-09-13T15:11:46Z,42.805,6.029,13.2956,4.59956,2469.914,2019-9-13T17:12:09Z
2019-09-13T15:14:49Z,42.805,6.029,13.2971,4.59955,2469.853,2019-9-13T17:15:12Z